Погода в Краснокаменске

Россия / Красноярский край     54°20′22″N   93°15′18″E
темп.,
°C
ветер,
м/с
пор.,
м/с
влажн.,
%
обл.,
%
осадки,
мм/ч
давл.,
гПа
погр.,
м
24 января, вс
вс2401:00−18юв129896 0.3 103620
04:00−19в119891 0.0 103420
07:00−19в119893 0.1 103520
10:00−17вюв1197100 0.3 103449
13:00−13ю2494100 0.8 1034371
16:00−13ююз2594100 0.2 1032548
19:00−17ююв1198100 0.2 103520
22:00−18юв1198100 0.0 103520
25 января, пн
пн2501:00−18ююв1198100 0.1 103520
04:00−17юз2697100 0.3 1037368
07:00−19юз2598100 0.8 1040258
10:00−21зюз2398100 0.4 1043287
13:00−21зюз3392100 0.6 1044753
16:00−23юз2390100 0.1 1044556
19:00−28вюв0198100 0.1 104619
22:00−30всв1110097 0.0 104419
26 января, вт
вт2601:00−30всв129896 0.0 104320
04:00−29св1197100 0.0 104219
07:00−30ссв1296100 0.0 104119
10:00−29всв119794 0.0 104020
13:00−23ю119497 0.0 1038272
16:00−23юз1196100 0.0 103852
19:00−30сз1110093 0.0 104119
22:00−29ссв119888 0.0 104219
27 января, ср
ср2701:00−28св119894 0.1 104319
04:00−30всв1199100 0.1 104419
07:00−30всв1199100 0.1 104419
10:00−27всв1198100 0.0 104368
13:00−22в1396100 0.1 1038242
16:00−19в1397100 0.5 1034292
19:00−19в1299100 1.4 103287
22:00−18вюв1298100 1.5 103189
28 января, чт
чт2801:00−17вюв1298100 3.2 1030107
04:00−16вюв1297100 1.9 1029109
07:00−15вюв1297100 4.0 1028112
10:00−13вюв1296100 2.0 1029113
13:00−9ююв2396100 3.7 1027207
16:00−6ююз2696100 1.4 1026485
19:00−6ююз21195100 2.1 1026653
22:00−6юз41292100 1.1 1024806